Location: Bothwell
(42.3833°S, 147.0000°E)
Time: 06:58:29
(UTC+11:00)

PCSat - Visible Passes

Search period start: 30 January 2023 00:00
Search period end: 09 February 2023 00:00
Orbit: 785 x 793 km, 67.0° (Epoch: 28 January)

Date Brightness Start Highest point End Pass type
(mag) Time Alt. Az. Time Alt. Az. Time Alt. Az.
30 Jan 11.8 02:33:50 10° S 02:38:06 22° SE 02:42:19 10° E visible
30 Jan 9.5 04:16:32 10° SW 04:21:57 66° WNW 04:27:18 10° NNE visible
31 Jan 12.1 02:02:58 10° S 02:06:36 18° SE 02:10:14 10° E visible
31 Jan 9.5 03:45:16 10° SSW 03:50:45 89° WNW 03:56:11 10° NNE visible
31 Jan 11.3 05:31:17 10° W 05:33:16 12° WNW 05:35:14 10° WNW visible
01 Feb 12.3 01:32:13 10° S 01:35:05 14° SE 01:37:55 10° ESE visible
01 Feb 9.8 03:14:03 10° SSW 03:19:30 68° ESE 03:22:53 23° NE visible
01 Feb 11.0 04:58:48 10° WSW 05:02:16 17° WNW 05:03:24 16° WNW visible
02 Feb 12.4 01:01:51 10° SSE 01:03:29 11° SSE 01:05:07 10° SE visible
02 Feb 10.3 02:42:54 10° SSW 02:48:12 50° SE 02:50:35 30° ENE visible
02 Feb 10.6 04:26:57 10° SW 04:31:09 24° WNW 04:31:09 24° WNW visible
03 Feb 10.8 02:11:48 10° SSW 02:16:53 38° SE 02:18:46 29° E visible
03 Feb 10.4 03:55:19 10° SW 03:59:22 32° W 03:59:22 32° W visible
04 Feb 11.2 01:40:46 10° SSW 01:45:29 29° SE 01:47:14 24° E visible
04 Feb 10.2 03:23:51 10° SW 03:27:51 40° WSW 03:27:51 40° WSW visible
05 Feb 11.5 01:09:47 10° S 01:14:03 23° SE 01:15:55 19° ESE visible
05 Feb 10.1 02:52:30 10° SW 02:56:33 48° WSW 02:56:33 48° WSW visible
06 Feb 11.8 00:38:54 10° S 00:42:34 18° SE 00:44:43 15° ESE visible
06 Feb 10.1 02:21:13 10° SSW 02:25:21 53° SSW 02:25:21 53° SSW visible
07 Feb 12.0 00:08:08 10° S 00:11:02 14° SE 00:13:39 11° ESE visible
07 Feb 10.2 01:50:00 10° SSW 01:54:18 53° S 01:54:18 53° S visible
07 Feb 11.9 03:34:47 10° WSW 03:34:56 10° WSW 03:34:56 10° WSW visible
07 Feb 12.1 23:37:44 10° SSE 23:39:26 11° SSE 23:41:09 10° SE visible
08 Feb 10.4 01:18:50 10° SSW 01:23:18 46° SSE 01:23:18 46° SSE visible
08 Feb 11.7 03:02:54 10° SW 03:03:57 14° WSW 03:03:57 14° WSW visible
